Flag for Germany Weather past 2 weeks in Waldkraiburg, Bavaria, Germany

Now
61 °F

Overcast.


Feels Like: 61 °F
Forecast: 53 / 79 °F
Wind: 3 mph from Northeast

Location: Muenchen Flughafen

Current Time: Aug 1, 2015 at 12:14:43 AM

Latest Report: Jul 31, 2015 at 11:00 PM


Visibility: 28 mi

Pressure: 29.95 "Hg

Humidity: 55%

Dew point: 44 °F

Location of WaldkraiburgLocation

Historic Weather in Waldkraiburg — Graph

°F

Waldkraiburg temperature yesterday

Maximum temperature yesterday: 74 °F (at 5:00 PM)
Minimum temperature yesterday: 50 °F (at 5:00 AM)
Average temperature yesterday: 64 °F

Past Weeks' High & Low Weather Summary

 TemperatureHumidityPressure
High93 °F (Jul 22, 4:00 PM)98% (Jul 19, 2:00 AM)30.11 "Hg (Jul 19, 2:00 AM)
Low45 °F (Jul 30, 5:00 AM)21% (Jul 17, 4:00 PM)29.68 "Hg (Jul 27, 3:00 PM)
Average70 °F63%29.91 "Hg
* Reported Jul 16 11:00 PM — Jul 31 11:00 PM, Waldkraiburg, Weather by CustomWeather, © 2015

Note: Actual official high and low records may vary slightly from our data, if they occured in-between our weather recording intervals... More about our weather records

Advertising

Waldkraiburg weather history for previous 24 hours

 ConditionsComfort  
Time TempWeatherWind HumidityBarometerVisibility
11:00 PM
Fri, Jul 31
61 °FOvercast.3 mph55%29.95 "Hg28 mi
10:00 PM64 °FOvercast.3 mph51%29.95 "Hg28 mi
9:00 PM66 °FOvercast.2 mph43%29.94 "Hg31 mi
8:00 PM70 °FOvercast.3 mph37%29.93 "Hg31 mi
7:00 PM73 °FPartly sunny.6 mph31%29.91 "Hg31 mi
6:00 PM73 °FPartly sunny.6 mph30%29.93 "Hg31 mi
5:00 PM74 °FScattered clouds.6 mph29%29.93 "Hg31 mi
4:00 PM74 °FPartly sunny.5 mph28%29.95 "Hg31 mi
3:00 PM72 °FScattered clouds.6 mph30%29.98 "Hg31 mi
2:00 PM72 °FScattered clouds.1 mph32%30.00 "Hg31 mi
1:00 PM70 °FScattered clouds.2 mph34%30.02 "Hg31 mi
12:00 PM70 °FScattered clouds.3 mph35%30.03 "Hg28 mi
11:00 AM66 °FPassing clouds.2 mph36%30.06 "Hg28 mi
10:00 AM65 °FPassing clouds.1 mph46%30.06 "Hg28 mi
9:00 AM63 °FPassing clouds.1 mph53%30.07 "Hg28 mi
8:00 AM58 °FScattered clouds.1 mph67%30.07 "Hg28 mi
7:00 AM53 °FPartly sunny.1 mph78%30.08 "Hg28 mi
6:00 AM51 °FPartly sunny.1 mph86%30.08 "Hg28 mi
5:00 AM50 °FPassing clouds.1 mph84%30.08 "Hg25 mi
4:00 AM53 °FOvercast.2 mph84%30.07 "Hg25 mi
3:00 AM59 °FPassing clouds.1 mph56%30.05 "Hg25 mi
2:00 AM56 °FPassing clouds.2 mph72%30.06 "Hg25 mi
1:00 AM56 °FPassing clouds.1 mph73%30.05 "Hg25 mi
Weather by CustomWeather, © 2015

See weather overviewHow to use our weather pages